Regional Weather Roundup
Issued by NWS Goodland, KS

Home | Current Version | Previous Version | Text Only | Print | Product List | Glossary On
Versions: 1 2 3 4 5 6 7 8 9 10 11 12 13 14 15 16 17 18 19 20 21 22 23 24 25 26 27 28 29 30 31 32 33 34 35 36 37 38 39 40 41 42 43 44 45 46 47 48 49 50
000
ASUS43 KGLD 250308
RWRGLD

GOODLAND FORECAST AREA HOURLY WEATHER ROUNDUP
NATIONAL WEATHER SERVICE GOODLAND KS
900 PM MDT MON APR 24 2017

...OFFICIAL OBSERVATIONS...

CITY           SKY/WX    TMP DP  RH WIND       PRES   REMARKS
GOODLAND KS    CLOUDY    54  43  66 E7        29.51F
HILL CITY KS   CLOUDY    63  46  54 E7        29.52R
IMPERIAL NEB   LGT RAIN  60  40  47 NE9       29.56R
MCCOOK NEB     CLOUDY    61  43  51 E13       29.52R
AKRON CO       CLOUDY    48  42  80 E10       29.58F
BURLINGTON CO  NOT AVBL
LIMON CO       CLOUDY    55  37  50 NE10      29.56S
$$

...UNOFFICIAL OBSERVATIONS...

CITY           SKY/WX    TMP DP  RH WIND       PRES   REMARKS
LENORA KS        N/A     63  32  31 MISG        N/A
NORTON KS      CLEAR     61  39  44 NE13      29.52
SHARON SPRINGS   N/A     60  44  56 E8          N/A
TRENTON NEB      N/A     60  32  34 E7          N/A
YUMA CO        RAIN      52  43  71 N8        29.59R
$$




USA.gov is the U.S. government's official web portal to all federal, state and local government web resources and services.